Regional Weather Roundup
Issued by NWS

Home | Current Version | Previous Version | Text Only | Print | Product List | Glossary On
Versions: 1 2 3 4 5 6 7 8 9 10 11 12 13 14 15 16 17 18 19 20 21 22 23 24 25 26 27 28 29 30 31 32 33 34 35 36 37 38 39 40 41 42 43 44 45 46 47 48 49 50
745
ASUS43 KMKX 302221
RWRWI

WISCONSIN REGIONAL WEATHER ROUNDUP
NATIONAL WEATHER SERVICE MILWAUKEE/SULLIVAN WI
500 PM CDT SUN APR 30 2017

NOTE: "FAIR" INDICATES FEW OR NO CLOUDS BELOW 12,000 FEET WITH NO
SIGNIFICANT WEATHER AND/OR OBSTRUCTIONS TO VISIBILITY.

WIZ001-002-006>008-014>016-023>028-302300-
NORTHWEST WISCONSIN

CITY           SKY/WX    TMP DP  RH WIND       PRES   REMARKS
SUPERIOR ARPT  PTSUNNY   40  33  77 E17       30.00F WCI  31
ASHLAND        CLOUDY    42  30  62 NE20G29   30.00F
HAYWARD        CLOUDY    41  32  70 NE20G25   29.94F
SIREN          CLOUDY    47  28  48 E15G24    29.91S
CUMBERLAND     CLOUDY    41  32  70 NE15G22   29.88F
RICE LAKE      CLOUDY    45  33  63 N18G25    29.88F
CHETEK         NOT AVBL
LADYSMITH      CLOUDY    52  28  40 NE17      29.88F
EAU CLAIRE     CLOUDY    51  35  54 E18G24    29.82F
MENOMONIE      CLOUDY    52  33  48 NE13G20   29.83F
NEW RICHMOND   CLOUDY    46  33  61 NE17      29.85F
OSCEOLA        CLOUDY    47  35  61 NE16G25   29.89F
$$

WIZ003>005-009-010-017-018-302300-
NORTH CENTRAL WISCONSIN

CITY           SKY/WX    TMP DP  RH WIND       PRES   REMARKS
MANITOWISH WTR NOT AVBL
ARBOR VITAE    CLOUDY    51  28  41 NE9G21    29.89F
WOODRUFF       CLOUDY    51  28  41 NE9G21    29.89F
RHINELANDER    CLOUDY    48  32  53 E15       29.91F
EAGLE RIVER    CLOUDY    49  24  37 E10G16    29.91F
LAND O LAKES   CLOUDY    46  23  40 NE15G25   29.95S
PHILLIPS       CLOUDY    50  27  40 NE14      29.87F
TOMAHAWK       CLOUDY    46  32  58 E12G17    29.90F
MEDFORD        CLOUDY    46  34  63 E18       29.86F
MERRILL        CLOUDY    46  34  63 E13       29.90F
$$

WIZ029-030-035-036-043>047-302300-
CENTRAL WISCONSIN

CITY           SKY/WX    TMP DP  RH WIND       PRES   REMARKS
WAUSAU         CLOUDY    42  36  79 NE12G23   29.89F
MOSINEE        CLOUDY    41  37  87 NE16G26   29.90F
MARSHFIELD     CLOUDY    43  36  76 E18       29.85F
STEVENS POINT  CLOUDY    38  35  87 NE13G18   29.89F WCI  30
WAUPACA        CLOUDY    41  37  85 NE14G22   29.90S
WAUTOMA        CLOUDY    40  37  89 NE14        N/A  WCI  32
WISC RAPIDS    CLOUDY    41  37  86 E15G22    29.88F
CAMP DOUGLAS   CLOUDY    42  37  82 NE16G23   29.82F
$$

WIZ011>013-019>022-031-037>040-048>050-302300-
NORTHEAST WISCONSIN

CITY           SKY/WX    TMP DP  RH WIND       PRES   REMARKS
ANTIGO         CLOUDY    39  34  81 E14       29.91F WCI  31
SHAWANO        CLOUDY    41  37  87 NE17G23   29.93F
OCONTO         CLOUDY    38  36  90 NE8G17    29.94F WCI  32
STURGEON BAY   CLOUDY    37  35  92 NE9G23    29.94F WCI  30
GREEN BAY      CLOUDY    40  38  93 NE18G28   29.91F WCI  31
MANITOWOC      CLOUDY    39  37  92 NE12G22   29.88F WCI  32
APPLETON       CLOUDY    39  37  93 NE18G28   29.87F WCI  30
CLINTONVILLE   CLOUDY    37  34  87 NE15G23   29.91F WCI  28
OSHKOSH        CLOUDY    40  37  89 NE16      29.86F WCI  31
$$

WIZ032>034-041-042-053>061-302300-
SOUTHWEST WISCONSIN

CITY           SKY/WX    TMP DP  RH WIND       PRES   REMARKS
LA CROSSE      CLOUDY    46  39  76 NE12G21   29.80F
SPARTA         CLOUDY    43  38  83 NE15G21   29.82F
VIROQUA        CLOUDY    41  38  90 NE17G28   29.77S
BOSCOBEL       CLOUDY    45  39  79 NE13G23   29.76F
PRAIRIE DU CHI DRIZZLE   44  38  79 NE10G16   29.73F
PLATTEVILLE    CLOUDY    44  43  96 NE17G25   29.73S
$$

WIZ056-057-062-063-064-067-068-302300-
SOUTH CENTRAL WISCONSIN

CITY           SKY/WX    TMP DP  RH WIND       PRES   REMARKS
REEDSBURG      CLOUDY    41  40  95 NE12G17   29.81F
BARABOO/DELLS  CLOUDY    40  37  89 NE12G21   29.81S WCI  34
LONE ROCK      CLOUDY    44  38  79 E18G28    29.77F
MINERAL POINT  CLOUDY    45  43  93 E20G31    29.73F
MADISON        DRIZZLE   43  40  89 NE16G25   29.78F FOG
MIDDLETON      CLOUDY    44  41  89 NE16      29.78F
WATERTOWN      CLOUDY    42  42 100 E14       29.82S
MONROE         CLOUDY    43  41  93 NE21G26   29.73F
JANESVILLE     CLOUDY    45  45 100 E20G25    29.76F
$$

WIZ051-052-058>065-066-070>072-302300-
SOUTHEAST WISCONSIN

CITY           SKY/WX    TMP DP  RH WIND       PRES   REMARKS
MILWAUKEE      CLOUDY    42  41  96 NE16      29.82F
WAUKESHA       CLOUDY    39  37  93 NE12G23   29.83F WCI  32
MILWAUKEE/TIMM CLOUDY    39  37  93 NE12G17   29.83F WCI  32
RACINE         CLOUDY    42  39  89 NE18G26   29.81F
KENOSHA        CLOUDY    43  40  89 NE16      29.78F
FOND DU LAC    CLOUDY    41  37  86 NE20G25   29.86F
SHEBOYGAN      CLOUDY    39  37  92 NE21      29.87F WCI  29
WEST BEND      CLOUDY    39  39 100 NE16G24   29.83F WCI  30
JUNEAU         CLOUDY    41  38  90 NE9       29.85R
$$

LSZ147-162-302300-
LAKE SUPERIOR

STATION/POSITION TIME  TEMP    WIND        PRES    WAVE
                       AIR SEA DIR/SP/G            HT/PER
                 (UTC) (F)     (DEG/KT/KT) (MB)    (FT/S)
DEVILS ISLAND    2200   38      60/ 20/ 22 1017.6F
PORT WING        2140   41      40/ 17/ 21 1016.3F
SAXON HARBOR     2130   40      50/ 16/ 20 1015.6F
$$

LMZ867-665-643>646-302300-
LAKE MICHIGAN

STATION/POSITION TIME  TEMP    WIND        PRES    WAVE
                       AIR SEA DIR/SP/G            HT/PER
                 (UTC) (F)     (DEG/KT/KT) (MB)    (FT/S)
CHAMBERS ISLAND  2140   37      40/ 18/ 24 1014.2F
N MID LAKE BUOY  2150   36 37   70/ 21/ 27 1015.3F   5/ 6
NORTHPORT PIER   2140   37      70/ 24/ 30 1014.6F
KEWAUNEE LAKESHO 2154   38      40/ 19/ 25 1012.3F
SHEBOYGAN LAKESH 2200   39      20/ 22/ 24 1011.7F
PORT WASHINGTON  2130   41      30/ 15/ 22 1011.9F
MILWAUKEE LAKESH 2200   40      20/ 17/ 20   N/A
S MID LAKE BUOY  2150   41 41   30/ 14/ 17 1008.8F   4/ 6
KENOSHA   LAKESH 2200   41      20/ 22/ 27 1008.1
$$

TC  - TEMPERATURE IN CELSIUS
VSB - VISIBILITY IN STATUTE MILES
WCI - WIND CHILL INDEX
HX  - HEAT INDEX





USA.gov is the U.S. government's official web portal to all federal, state and local government web resources and services.